Location: ???????
(60.4260°N, 46.9069°E)
Time: 05:13:01
(UTC+00:00)

Okean 2 Rocket - Pass Details

Date: 30 March 2020
Orbit: 617 x 641 km, 82.5° (Epoch: 27 May)

Event Time Altitude Azimuth Distance (km) Brightness Sun altitude
Rises 00:41:07 0° 346° (NNW) 2,932 6.8 -12.5°
Reaches altitude 10° 00:43:24 10° 351° (N) 2,024 6.0 -12.2°
Maximum altitude 00:47:49 57° 70° (ENE) 751 3.9 -11.8°
Drops below altitude 10° 00:52:15 10° 150° (SSE) 2,025 5.7 -11.3°
Sets 00:54:32 0° 155° (SSE) 2,933 6.5 -11.0°
